Showing default

CE-SAT 1, 42769

Orbit data source: Space-Track

CE-SAT 1, 42769 is a payload satellite owned by Canon STL (JP) in SSO that was launched on Fri, 23 Jun 2017 UTC via a PSLV-XL launch vehicle from the Sirharikota (SRI). Payloads include a variety of satellites, spacecraft, and rockets equipped with specific instruments for various scientific and technological missions. These include communications satellites like Starlink; space stations such as the ISS; scientific satellites like the Hubble; Earth observation satellites from companies like Planet Labs, Umbra, and HawkEye 360; GPS; miniature CubeSats for education and research; and military/defense satellites.

Loading next visibility...
CE-SAT 1 details
Identifier
42769, 2017-036E
Orbit
SSO
Last TLE update12 hours ago
Origin
Flag of JPCanon STL (JP / JPN)
ManufacturerCanon STL
MissionOperational Commercial Imaging
Bus & MotorCE-SAT, Unknown motor
Mass65 kg wet, 65 kg dry
Launch date (UTC)
2017-06-23 (8 years ago)
Launch vehicle
PSLV-XL
Launch site
Sirharikota (SRI)
Object type
Payload
Rocket body
Debris
Shape & HBRBox, 0.9 m
Radar Cross Section0.575 m², Medium (>0.1 m² and < 1m²)

Expand to show TLE details & history

TLE from 12 hours ago
0 CE-SAT 1
1 42769U 17036E   24361.20681512  .00073144  00000-0  82486-3 0  9996
2 42769  97.1073  18.6976 0003321 236.7640 123.3301 15.62282736418133
Epoch: 2024-12-26T04:57Z
Definitive object data (Epoch: 2024-12-26T04:57:48.826Z)
Latitude0.00001°
Longitude-150.94537°
Altitude385.455 km
Speed7.678 km/s
True Right ascension01h 14m 47s
True Declination0° 00' 00"
Sunlit
Object was in daylight at TLE epoch
Visualization TLE readout
Latitude-30.37081°
Longitude-146.26937°
Altitude392.564 km
Speed7.673 km/s
Apparent Right ascension02h 53m 37s
Apparent Declination-36° 52' 49"
Sunlit
Object is in daylight
Visualization observer readout
Local Sidereal Time16:30:08
Azimuth88.579° E
Elevation-70.907°
Doppler factor1
Orbital elements
Apogee altitude380.206 km
Perigee altitude375.718 km
Semi-major axis6,756.099 km
Eccentricity0.0003321
Inclination97.1073°
RAAN18.6976°
Arg. of periapsis236.764°
True anomaly123.36189°
Mean anomaly123.3301°
Eccentric anomaly123.346°
Mean motion3.9084 °/min
BSTAR0.00082486
Orbital period92.11 mins
Loading maneuver chart data...
Loading historical data...
Loading historical data...
Loading historical data...
Loading historical data...
Loading historical data...
Loading historical data...
Loading historical data...

CE-SAT 1 Visibility forecast

Observer location: undefined°, undefined

Span
Click to sort rows by Start time (UTC) header in descending order
Start Az.
Max El. time (UTC)
Max El. Az.
Max El.
End time (UTC)
End Az.
5 mins2024-12-27 01:04:51.593Z140.33° SSE2024-12-27 01:07:51.593Z51.084° ENE28.363°2024-12-27 01:09:51.593Z8.593° NNE
|